Cincinnati northern Kentucky International Airport Cincinnati US
ICAO: KCVG
IATA: CVG
Category: Large
Scheduled Services: Yes

Elevation: 896 ft
TransAlt. 18000 ft.

Airport Communications:
APP:119.7
ATIS:134.375
CLNC DEL:127.175
DEP:126.65
GND:121.3
LOUISVILLE RDO:117.3
TWR:118.3
UNICOM:122.95

KCVG Zoom In..

Runways:

(A) RW 09 length 12000 ft width 150 ft
ILS 111.90 / hdg 94

(B) RW 18C length 11000 ft width 150 ft
ILS 111.55 / hdg 184

(C) RW 18L length 10000 ft width 150 ft
ILS 110.15 / hdg 184

(D) RW 18R length 8000 ft width 150 ft
ILS 110.75 / hdg 184

(E) RW 27 length 12000 ft width 150 ft
ILS 108.70 / hdg 274

(F) RW 36C length 11000 ft width 150 ft
ILS 109.90 / hdg 4

(G) RW 36L length 8000 ft width 150 ft
ILS 110.75 / hdg 4

(H) RW 36R length 10000 ft width 150 ft
ILS 110.35 / hdg 4

Location; KCVG
Day. 26 / Time. 03.52 Zulu
* Altimeter: 29.88
* Temperature: 21° c. 69.8°f.
* Wind from: 190° Speed 04 kn.
Dewpoint: 16° c.
Visibility: 10 Statute Miles.
Clouds: Scattered 18000 ft.
Clouds: Broken 25000 ft.

KCVG 260352Z 19004KT 10SM SCT180 BKN250 21/16 A2988 RMK AO2 SLP107 T02060161


Wind From 190°
Speed 04 kn.

 
 
jpsmedia.com for Web Design SOUNDCLOUD worldairports.se 2018   terms of use